STARLINK-34459 (64449 NORAD) Tracking and Keplerian Element Data

This shows tracking and keplerian element data for the satellite.

Feedback or suggestion? Click here.




ElementValue
Catalog64449
NameSTARLINK-34459
Epoch Orbit2839
Epoch Day353.29935088
Epoch Year2025
RAAN102.0358
Inclination53.1608
Eccentricity0.000104
Argument of Perigee91.7857
Mean Anonmoly268.3263
Mean Motion15.30193742
Decay Rate0.0001735
L11 64449U 25130M 25353.29935088 .00017350 00000+0 59664-3 0 9998
L22 64449 53.1608 102.0358 0001040 91.7857 268.3263 15.30193742 28390



Live tracking and technical data element details for STARLINK-34459 (NORAD 64449). STARLINK-34459 can be tracked NOW for your location showing map with azimuth and elevation plus other details from your city location.







IsCatalogInMostPopularTable: catalog: 64449, numindb: 16
Update: records affected: 1



GetName: 64449 STARLINK-34459

Hit Count: updated at: Mon, 20 Apr 2026 10:14:30 GMT